Content
SEND FEEDBACK

Daily
Averages
Monthly
Summary
United States of America

MERIZO, GUAM


Home > North America > United States > Guam
Elevation: 10 feet     Latitude: 13 14N     Longitude: 144 39E

WEATHER
 
SELECT A DAY
Number of Records: 350,199;   Date Range: 1/1/95 - 9/29/14
 
SHARE

PRINT THIS DATA

[ ← Previous Day ]
WEATHER ALMANAC - MARCH 1, 2013
[ Next Day → ]
[ °C ]   °F
Weather ElementAverageHighLow
Temperature79.4 °F84.2 °F (12:07 pm)76.8 °F (11:55 pm)
Dewpoint73.7 °F75.2 °F (5:10 am)72.9 °F (11:55 pm)
Humidity82.8 %94 % (5:10 am)72 % (2:55 pm)
Barometer29.85 in29.89 in (9:22 am)29.80 in (3:48 pm)
Wind Speed15 mph18.4 mph (12:54 pm)
Wind Gust23 mph (1:26 pm)
Weather ElementAverage
Visibility10 mi
Wind DirectionENE (64.4 °)

Weather ElementTotal
Precipitation---
Cooling Degree Days15.5 (Base 65)
Growing Degree Days30.5 (Base 50)
Averaged from 111 records on March 1, 2013
WEATHER CONDITIONS BREAKOUT
WIND DIRECTION BREAKOUT
WEATHER BY HOUR - MARCH 1, 2013
[ °C ]   °F
Local TimeTemperatureDewpointHumidityBarometerVisibilityWind DirectionWind SpeedGust SpeedPrecipitationEventsConditions
12:28 AM78.8 °F73.4 °F83 %29.86 in10.0 miENE (70°)15.0 mphMostly Cloudy
12:29 AM78.8 °F73.4 °F83 %29.86 in10.0 miENE (70°)16.1 mphMostly Cloudy
12:34 AM78.8 °F73.4 °F83 %29.86 in10.0 miENE (70°)13.8 mphMostly Cloudy
12:42 AM78.8 °F73.4 °F83 %29.86 in10.0 miENE (70°)13.8 mphMostly Cloudy
12:51 AM78.8 °F73.4 °F83 %29.86 in10.0 miENE (70°)13.8 mphMostly Cloudy
12:55 AM77.9 °F73.9 °F88 %29.86 in10.0 miENE (70°)13.8 mphMostly Cloudy
12:58 AM77.0 °F73.4 °F89 %29.85 in10.0 miENE (70°)13.8 mphScattered Clouds
1:21 AM78.8 °F73.4 °F83 %29.85 in10.0 miENE (70°)15.0 mphMostly Cloudy
1:27 AM78.8 °F73.4 °F83 %29.85 in10.0 miEast (80°)12.7 mphMostly Cloudy
1:37 AM78.8 °F73.4 °F83 %29.84 in10.0 miEast (80°)15.0 mphMostly Cloudy
1:38 AM78.8 °F73.4 °F83 %29.84 in10.0 miEast (80°)16.1 mphMostly Cloudy
1:44 AM78.8 °F73.4 °F83 %29.84 in10.0 miEast (80°)17.3 mphScattered Clouds
1:55 AM77.7 °F74.3 °F89 %29.84 in10.0 miEast (80°)16.1 mphScattered Clouds
1:58 AM77.0 °F73.4 °F89 %29.84 in10.0 miENE (70°)15.0 mphMostly Cloudy
2:06 AM77.0 °F73.4 °F89 %29.83 in10.0 miEast (80°)16.1 mphScattered Clouds
2:22 AM77.0 °F73.4 °F89 %29.83 in10.0 miENE (70°)16.1 mphMostly Cloudy
2:29 AM77.0 °F73.4 °F89 %29.83 in10.0 miEast (80°)15.0 mphScattered Clouds
2:55 AM77.4 °F73.4 °F88 %29.83 in10.0 miEast (80°)16.1 mphPartly Cloudy
3:55 AM77.5 °F74.1 °F89 %29.83 in10.0 miENE (60°)16.1 mphScattered Clouds
4:45 AM77.0 °F73.4 °F89 %29.82 in10.0 miENE (70°)16.1 mphMostly Cloudy
4:55 AM77.5 °F73.9 °F89 %29.83 in10.0 miENE (60°)12.7 mphMostly Cloudy
5:10 AM77.0 °F75.2 °F94 %29.83 in10.0 miENE (60°)13.8 mph21.9 mphMostly Cloudy
5:13 AM77.0 °F73.4 °F89 %29.83 in10.0 miENE (60°)15.0 mphScattered Clouds
5:24 AM77.0 °F73.4 °F89 %29.83 in10.0 miENE (60°)12.7 mphMostly Cloudy
5:27 AM77.0 °F73.4 °F89 %29.83 in10.0 miENE (60°)16.1 mphMostly Cloudy
5:33 AM77.0 °F73.4 °F89 %29.83 in10.0 miENE (70°)13.8 mphMostly Cloudy
5:42 AM77.0 °F73.4 °F89 %29.83 in10.0 miENE (60°)15.0 mphMostly Cloudy
5:54 AM77.0 °F73.4 °F89 %29.83 in10.0 miEast (80°)16.1 mphMostly Cloudy
5:55 AM77.2 °F73.0 °F87 %29.83 in10.0 miEast (80°)17.3 mphMostly Cloudy
5:56 AM77.0 °F73.4 °F89 %29.84 in10.0 miEast (80°)17.3 mphScattered Clouds
6:43 AM77.0 °F73.4 °F89 %29.84 in10.0 miENE (70°)15.0 mph20.7 mphMostly Cloudy
6:46 AM77.0 °F73.4 °F89 %29.84 in10.0 miENE (70°)13.8 mph20.7 mphScattered Clouds
6:48 AM77.0 °F73.4 °F89 %29.84 in10.0 miENE (70°)12.7 mph20.7 mphMostly Cloudy
6:51 AM77.0 °F73.4 °F89 %29.84 in10.0 miENE (70°)13.8 mphMostly Cloudy
6:54 AM77.0 °F73.4 °F89 %29.84 in10.0 miENE (70°)12.7 mphScattered Clouds
6:55 AM77.2 °F73.0 °F87 %29.84 in10.0 miENE (70°)13.8 mphScattered Clouds
7:55 AM79.0 °F73.9 °F84 %29.86 in10.0 miENE (60°)16.1 mphScattered Clouds
8:55 AM80.6 °F73.0 °F78 %29.88 in10.0 miENE (60°)16.1 mphPartly Cloudy
9:22 AM80.6 °F73.4 °F79 %29.89 in10.0 miENE (60°)17.3 mphMostly Cloudy
9:26 AM80.6 °F73.4 °F79 %29.89 in10.0 miENE (70°)16.1 mphScattered Clouds
9:55 AM81.3 °F73.4 °F77 %29.89 in10.0 miENE (60°)15.0 mphScattered Clouds
10:05 AM82.4 °F73.4 °F74 %29.89 in10.0 miENE (70°)15.0 mph21.9 mphMostly Cloudy
10:08 AM82.4 °F73.4 °F74 %29.89 in10.0 miENE (60°)13.8 mph21.9 mphScattered Clouds
10:27 AM82.4 °F75.2 °F79 %29.89 in10.0 miNorthMostly Cloudy
10:29 AM82.4 °F75.2 °F79 %29.88 in10.0 miNorthMostly Cloudy
10:31 AM82.4 °F75.2 °F79 %29.88 in10.0 miNorthMostly Cloudy
10:32 AM82.4 °F73.4 °F74 %29.88 in10.0 miNorthScattered Clouds
10:54 AM80.6 °F73.4 °F79 %29.88 in10.0 miENE (70°)15.0 mphMostly Cloudy
10:55 AM81.3 °F74.1 °F79 %29.88 in10.0 miENE (70°)16.1 mphMostly Cloudy
10:58 AM82.4 °F73.4 °F74 %29.88 in10.0 miEast (80°)16.1 mphScattered Clouds
11:55 AM83.5 °F74.1 °F73 %29.86 in10.0 miENE (70°)16.1 mphScattered Clouds
12:07 PM84.2 °F75.2 °F74 %29.86 in10.0 miEast (80°)16.1 mphMostly Cloudy
12:21 PM84.2 °F75.2 °F74 %29.85 in10.0 miEast (80°)17.3 mphMostly Cloudy
12:54 PM82.4 °F75.2 °F79 %29.84 in10.0 miENE (70°)18.4 mphMostly Cloudy
12:55 PM82.6 °F74.7 °F77 %29.84 in10.0 miENE (70°)17.3 mphMostly Cloudy
12:58 PM82.4 °F75.2 °F79 %29.84 in10.0 miENE (70°)17.3 mphMostly Cloudy
1:10 PM82.4 °F75.2 °F79 %29.84 in10.0 miENE (70°)17.3 mphScattered Clouds
1:26 PM84.2 °F75.2 °F74 %29.83 in10.0 miENE (70°)16.1 mph23.0 mphMostly Cloudy
1:30 PM84.2 °F75.2 °F74 %29.83 in10.0 miEast (80°)18.4 mphScattered Clouds
1:38 PM82.4 °F75.2 °F79 %29.83 in10.0 miEast (80°)16.1 mphMostly Cloudy
1:48 PM82.4 °F73.4 °F74 %29.83 in10.0 miEast (80°)16.1 mphScattered Clouds
1:55 PM83.5 °F74.3 °F74 %29.83 in10.0 miENE (70°)17.3 mphScattered Clouds
2:01 PM84.2 °F75.2 °F74 %29.83 in10.0 miENE (70°)16.1 mphMostly Cloudy
2:07 PM84.2 °F75.2 °F74 %29.82 in10.0 miEast (80°)16.1 mphScattered Clouds
2:55 PM83.7 °F73.8 °F72 %29.82 in10.0 miENE (70°)16.1 mphScattered Clouds
3:27 PM82.4 °F73.4 °F74 %29.81 in10.0 miENE (60°)16.1 mphMostly Cloudy
3:48 PM82.4 °F73.4 °F74 %29.80 in10.0 miENE (60°)16.1 mphMostly Cloudy
3:55 PM81.7 °F73.8 °F77 %29.80 in10.0 miENE (60°)16.1 mphMostly Cloudy
3:56 PM82.4 °F73.4 °F74 %29.80 in10.0 miENE (60°)15.0 mphMostly Cloudy
4:36 PM80.6 °F73.4 °F79 %29.81 in10.0 miENE (70°)13.8 mphMostly Cloudy
4:42 PM80.6 °F73.4 °F79 %29.81 in10.0 miENE (60°)13.8 mphMostly Cloudy
4:51 PM80.6 °F73.4 °F79 %29.81 in10.0 miENE (60°)13.8 mphScattered Clouds
4:55 PM81.3 °F73.2 °F76 %29.82 in10.0 miENE (60°)12.7 mphScattered Clouds
5:38 PM80.6 °F73.4 °F79 %29.83 in10.0 miENE (60°)15.0 mphMostly Cloudy
5:39 PM80.6 °F73.4 °F79 %29.83 in10.0 miENE (60°)16.1 mphScattered Clouds
5:40 PM80.6 °F73.4 °F79 %29.83 in10.0 miENE (60°)17.3 mphMostly Cloudy
5:42 PM80.6 °F73.4 °F79 %29.83 in10.0 miENE (60°)15.0 mphMostly Cloudy
5:45 PM80.6 °F73.4 °F79 %29.83 in10.0 miENE (60°)13.8 mphMostly Cloudy
5:55 PM79.7 °F73.6 °F81 %29.83 in10.0 miENE (60°)16.1 mphMostly Cloudy
6:00 PM80.6 °F73.4 °F79 %29.83 in10.0 miENE (60°)13.8 mphMostly Cloudy
6:05 PM78.8 °F73.4 °F83 %29.83 in10.0 miENE (70°)12.7 mphScattered Clouds
6:09 PM78.8 °F73.4 °F83 %29.83 in10.0 miENE (60°)15.0 mphMostly Cloudy
6:12 PM78.8 °F73.4 °F83 %29.83 in10.0 miENE (60°)15.0 mphScattered Clouds
6:25 PM78.8 °F73.4 °F83 %29.83 in10.0 miENE (70°)12.7 mphMostly Cloudy
6:28 PM78.8 °F73.4 °F83 %29.84 in10.0 miENE (60°)12.7 mphScattered Clouds
6:29 PM78.8 °F73.4 °F83 %29.84 in10.0 miENE (60°)11.5 mphMostly Cloudy
6:41 PM78.8 °F73.4 °F83 %29.84 in10.0 miENE (60°)17.3 mphMostly Cloudy
6:47 PM78.8 °F73.4 °F83 %29.84 in10.0 miENE (60°)17.3 mphMostly Cloudy
6:53 PM78.8 °F73.4 °F83 %29.84 in10.0 miENE (70°)16.1 mphMostly Cloudy
6:55 PM78.6 °F73.4 °F84 %29.84 in10.0 miENE (60°)15.0 mphMostly Cloudy
7:02 PM78.8 °F73.4 °F83 %29.85 in10.0 miENE (60°)18.4 mphOvercast
7:25 PM77.0 °F73.4 °F89 %29.86 in10.0 miENE (60°)15.0 mphMostly Cloudy
7:33 PM78.8 °F73.4 °F83 %29.86 in10.0 miENE (60°)12.7 mphMostly Cloudy
7:51 PM78.8 °F73.4 °F83 %29.86 in10.0 miENE (70°)12.7 mphScattered Clouds
7:55 PM78.1 °F73.2 °F85 %29.86 in10.0 miENE (60°)13.8 mphScattered Clouds
8:55 PM77.4 °F73.0 °F86 %29.87 in10.0 miENE (60°)12.7 mphPartly Cloudy
9:23 PM77.0 °F73.4 °F89 %29.87 in10.0 miENE (60°)15.0 mphMostly Cloudy
9:27 PM77.0 °F73.4 °F89 %29.87 in10.0 miENE (60°)13.8 mphScattered Clouds
9:55 PM77.5 °F73.6 °F88 %29.87 in10.0 miENE (70°)11.5 mphPartly Cloudy
10:55 PM77.9 °F73.6 °F86 %29.87 in10.0 miENE (60°)11.5 mphMostly Cloudy
11:00 PM77.0 °F73.4 °F89 %29.87 in10.0 miENE (60°)12.7 mphMostly Cloudy
11:02 PM77.0 °F73.4 °F89 %29.87 in10.0 miENE (60°)13.8 mphMostly Cloudy
11:08 PM78.8 °F73.4 °F83 %29.87 in10.0 miENE (60°)12.7 mphMostly Cloudy
11:12 PM78.8 °F73.4 °F83 %29.87 in10.0 miENE (60°)15.0 mphScattered Clouds
11:14 PM77.0 °F73.4 °F89 %29.87 in9.0 miENE (60°)13.8 mphRainLight Rain
11:15 PM77.0 °F73.4 °F89 %29.87 in9.0 miENE (60°)15.0 mphRainLight Rain
11:24 PM77.0 °F73.4 °F89 %29.88 in10.0 miENE (60°)13.8 mphMostly Cloudy
11:31 PM77.0 °F73.4 °F89 %29.87 in10.0 miENE (60°)13.8 mphRainLight Rain
11:46 PM77.0 °F73.4 °F89 %29.87 in10.0 miENE (60°)13.8 mphRainLight Rain
11:48 PM77.0 °F73.4 °F89 %29.87 in10.0 miENE (60°)15.0 mphMostly Cloudy
11:55 PM76.8 °F72.9 °F88 %29.87 in10.0 miENE (60°)16.1 mph0.00 inScattered Clouds
Hourly data recorded from PGUA, located miles away from Merizo, Guam







STORIES FROM OUR PARTNERS